{"data":{"norad_id":56124,"intl_designator":"2023-046AJ","name":"STARLINK-6126","alt_names":[],"object_type":"PAYLOAD","status":"ACTIVE","operator":null,"country":"US","launch_date":"2023-03-29","launch_site_code":"AFETR","launch_vehicle":null,"mission":null,"orbit_class":"UNKNOWN","rcs_meters":null,"size_class":null,"mass_kg":null,"dimensions":null,"purposes":["comms"],"wikipedia_slug":null,"has_3d_model":false,"image_url":null,"decayed_at":null,"tle_current":{"epoch":"2026-09-20T07:33:06.404544Z","epoch_age_seconds":124797,"freshness":"FRESH","line1":"1 56124U 23046AJ  26263.31465746 -.00000034  00000+0  82903-5 0  9992","line2":"2 56124  43.0012 128.0146 0001237 243.8090 116.2634 15.27578069191960","mean_motion":15.27578069,"eccentricity":0.0001237,"inclination_deg":43.0012,"raan_deg":128.0146,"arg_perigee_deg":243.809,"mean_anomaly_deg":116.2634,"bstar":8.2903e-6,"rev_number":19196,"period_min":94.266867875543,"perigee_km":482.20614871909,"apogee_km":483.90360758975,"semimajor_km":6861.1918781544,"source":"CELESTRAK","updated_at":"2026-09-21T09:00:33.386379Z"}}}